Погода в Бектауате

Погода в Бектауате : погода сейчас, прогноз погоды и архив. Всё, что Вы хотите узнать о погоде в Бектауате!

Поиск расширенной информации на нашем сайте:

Другие новости

Новости СМИ2

Главная страница сайта

Новости сайта

03.07.2017

Напоминаем, что на нашем специализированном сайте Метеоцентр.Азия вы можете получить высокодетализированные автоматические прогнозы погоды по пунктам России, СНГ и мира в авиационном формате (включающие направление и скорость ветра, видимость, явления погоды, количество и форму облачности, нижнюю и верхнюю границу облачности).


Погода в Бектауате - сегодня

Время (UTC), дата Ветер
(°,м/с) 
Видим.   Явления Облачность Т
(°С)
Тd
(°С)
f(%) Тe
(°С)
Pmin
(гПа)
dP
(гПа)
Po
(мм)
O2
(г/м3)
Тmin Tmax R s Состояние
почвы
03 10.12.17 270 (З) 20000 м  {снег}  8/8 600 м 
[St]
-7.9 -10.1 84 -12  1030.8  714  297  -7.9      18  неравномерный
сухой снег
100% 
06 10.12.17 200 (Ю) 20000 м  {снег}  8/5 300 м верхняя 
[St|Ci ing]
-8.3 -10.6 83 -13  1032.8  1.6  716  298  -7.9       
09 10.12.17 230 (ЮЗ) 20000 м    8/5 600 м верхняя 
[St|Ci]
-6.7 -9.5 80 -11  1032.5  0.2  716  296           
12 10.12.17 230 (ЮЗ) н/о  слаб. снег  10/10 300 м 
[Frnb|Ns]
-6.9 -8.5 88 -10  1032.5  716  297           
15 10.12.17 230 (ЮЗ) н/о  слаб. снег  10/10 300 м 
[Frnb|Ns]
-7.2 -8.9 88 -13  1032.6  -0.1  716  297    -5.5       
18 10.12.17 230 (ЮЗ) н/о  дымка{снег}  10/10 300 м 
[St]
-8.9 -10 92 -13  1031.8  -1.2        0.4     
21 10.12.17 тихо ()   н/о    9/9 300 м 
[St]
-9.4 -10.6 91 -9  1030.8  -1.1  714  299           
00 11.12.17 тихо ()   н/о  дымка  10/10 300 м 
[St]
-9 -10.1 92 -9  1029.3  -1.3  713  298           
06 11.12.17 тихо ()   20000 м    3/3 600 м 
[St]
-9.5 -14.6 66 -10  1030.3  0.9  714  299  -11.4    0.2     
09 11.12.17 тихо ()   20000 м    1/1 600 м 
[St]
-10.8 -15.2 70 -11  1030.5  -0.2  713  301           
12 11.12.17 тихо ()   н/о    ясно 
-13.5 -17 75 -14  1033.7  2.1  715  304           
15 11.12.17 тихо ()   н/о    ясно 
-17.5 -20.1 80 -18  1035.9  0.8  716  310    -8.8       
18 11.12.17 тихо ()   н/о    ясно 
-18.5 -20.4 85 -19  1036  -0.2             
21 11.12.17 тихо ()   н/о    ясно 
-14.7 -17.4 80 -15  1034.3  -0.4  715  306           
00 12.12.17 тихо ()   н/о    ясно 
-16.5 -19.1 80 -17  1034.1  -0.7  715  308           
03 12.12.17 тихо ()   20000 м    ясно 
-18.7 -21.3 80 -19  1036.2  1.2  716  311        19  неравномерный
сухой снег
100% 
06 12.12.17 тихо ()   20000 м    ясно 
-13.8 -17.3 75 -14  1034.5             
09 12.12.17 050 (СВ) 20000 м    ясно 
-10.5 -15.8 65 -12  1032.8    715  301           
12 12.12.17 тихо ()   н/о    ясно 
-15.2 -19.4 70 -15  1036  1.5  716  307           
15 12.12.17 020 (С) н/о    ясно 
-13.9 -18.2 70 -16  1036.9  1.2             
18 12.12.17 020 (С) н/о    ясно 
-15.4 -19.6 70 -19  1038.4  0.9  718  308    -9.8       
21 12.12.17 020 (С) н/о    ясно 
-15.5 -19.7 70 -20  1039.8  1.4  719  309           
00 13.12.17 360 (С) н/о  позёмок  ясно 
-16.5 -20.7 70 -24  1041  0.7  719  310           
03 13.12.17 360 (С) 20000 м  позёмок  ясно 
-19.3 -22.6 75 -27  1043.5  1.4  720  314        15  неравномерный
сухой снег
100% 
06 13.12.17 020 (С) 20000 м  позёмок  ясно 
-16.7 -20.9 70 -25  1043.5  0.9  721  311  -19.5         
Время (UTC), дата Ветер
(°,м/с) 
Видим.   Явления Облачность Т
(°С)
Тd
(°С)
f(%) Тe
(°С)
Pmin
(гПа)
dP
(гПа)
Po
(мм)
O2
(г/м3)
Тmin Tmax R s Состояние
почвы

Для получения пояснительной информации подведите курсор к названию столбца.

ПОГОДА в Бектауате - архив

Всё, что Вы хотите узнать о погоде в Бектауате - удобно и подробно!

Выберите нужную дату (начиная с 1 января 2015* года) и нажмите кнопку "Найти".
Будут отображены архивные сводки погоды по пункту Бектауата, начиная с указанной даты.


Отображать данные в формате CSV (для использования в таблицах Excel)


Внимание! Наш архив погоды предназначен исключительно для личного некоммерческого использования в познавательных целях. Если Вам необходимы официальные справки о состоянии погоды (для производственных, юридических, коммерческих и т.п. целей), обращайтесь в органы Росгидромета.

*Примечание: данная дата относится к архиву по метеостанциям СССР (Россия, СНГ, Балтия).
Архив по метеостанциям Зарубежной Европы и Азии (кроме Китая) хранится 10 дней, по другим регионам земного шара (Китай, Африка, Америка, Австралия, Океания) - 1 день.

Бектауата - район местоположения метеостанции


Название, широта, долгота, высота метеостанции:
Бектауата 47.4°ш. 74.8°д. 520 м над ур. моря [Казахстан]

Дополнительная информация

В oтличие oт бoльшинства пoгoдных сайтoв мы публикуем пoдрoбную метеoинфoрмацию в детальнoм прoфессиoнальнoм фoрмате.

Характеристики температуры и влажнoсти вoздуха измеряются на высoте 2 м в тени вдали oт зданий и деревьев.
Скoрoсть ветра измеряется на высoте 10 м (на урoвне рoста челoвека скoрoсть ветра ниже в 1.5-2 раза). Если метеoстанция нахoдится в гoрoде или в лесу, тo скoрoсть ветра занижена на 2-4 м/с пo сравнению с oткрытым местoм. Скoрoсть ветра над акватoриями крупных рек и oзёр, а также на вершинах хoлмoв на 2-5 м/с выше, чем в oбычных услoвиях.
Атмoсфернoе давление в разных тoчках местнoсти мoжет значительнo oтличаться oт давления на метеoстанции, в зависимoсти oт услoвий рельефа (при пoдъёме на 10 м давление пoнижается примернo на 1 мм рт.ст.).